SCP
0 0 0 0 0 0 0 0 0 0 0 0 0 0 0 0 0 0 0 0 0 0
0 0 0 0 0 0 0 0 0 0 0 0 0 0 0 0 0 0 0 0 0 0
0 0 0 0 0 0 0 0 0 0 0 0 0 0 0 0 0 0 0 0 0 0
0 0 0 0 0 0 0 0 0 0 0 0 0 0 0 0 0 0 0 0 0 0
0 0 0 0 0 0 0 0 0 0 0 0 0 0 0 0 0 0 0 0 0 0
0 0 0 0 0 0 0 0 0 0 0 0 0 0 0 0 0 0 0 0 0 0
0 0 0 0 0 0 0 0 0 0 0 0 0 0 0 0 0 0 0 0 0 0
0 0 0 0 0 0 0 0 0 0 0 0 0 0 0 0 0 0 0 0 0 0
0 0 0 0 0 0 0 0 0 0 0 0 0 0 0 0 0 0 0 0 0 0
0 0 0 0 0 0 0 0 0 0 0 0 0 0 0 0 0 0 0 0 0 0
0 0 0 0 0 0 0 0 0 0 0 0 0 0 0 0 0 0 0 0 0 0
0 0 0 0 0 0 0 0 0 0 0 0 0 0 0 0 0 0 0 0 0 0
0 0 0 0 0 0 0 0 0 0 0 0 0 0 0 0 0 0 0 0 0 0
0 0 0 0 0 0 0 0 0 0 0 0 0 0 0 0 0 0 0 0 0 0
Wind_Speed_500mb
60 53 48 50 44 38 35 34 35 34 33 29 29 26 27 28 30 31 32 35 36 40
50 47 48 49 39 41 36 31 32 33 32 31 30 26 27 28 32 27 31 35 37 39
35 40 45 45 42 37 37 37 31 31 30 17 23 27 26 26 25 35 35 32 32 32
30 34 40 45 39 29 29 28 28 30 31 31 30 27 29 30 28 27 25 25 27 29
33 39 45 46 45 29 28 30 28 27 26 29 27 23 22 20 18 18 20 23 26 30
36 39 42 45 41 32 30 30 28 26 25 22 20 17 14 13 14 17 22 27 32 36
33 37 38 37 35 31 31 30 27 25 24 20 16 13 11 12 17 22 27 30 34 37
34 33 33 33 34 34 33 31 26 23 18 14 11 10 12 18 22 24 27 31 36 40
36 36 36 36 35 35 32 27 22 18 14 10 11 15 19 23 25 28 32 36 40 44
39 39 39 38 36 33 28 24 20 15 13 13 16 18 21 26 30 34 37 40 40 41
44 43 41 39 35 30 26 22 17 14 12 14 19 24 27 29 33 35 36 35 36 37
46 44 41 37 33 29 26 20 15 12 14 20 26 32 34 32 31 29 28 30 32 36
48 44 40 37 33 29 23 17 12 12 20 30 34 31 31 29 26 24 26 27 30 38
49 46 42 37 32 26 18 13 17 25 29 30 30 29 26 24 25 27 30 33 36 39
Wind_Direction_500mb
242 236 234 232 239 243 246 245 243 244 248 248 254 253 260 258 262 260 261 270 280 278
235 228 225 220 223 237 240 238 243 243 247 250 241 254 256 258 253 258 272 278 278 280
218 214 215 218 223 233 235 239 242 243 240 240 228 253 258 254 269 269 272 275 279 285
206 204 204 207 215 219 227 227 229 232 238 248 248 240 245 250 256 261 269 278 286 293
205 205 206 210 220 215 216 220 218 219 222 231 232 228 232 239 251 267 280 290 299 302
201 201 205 211 224 209 203 209 208 206 207 210 215 219 231 253 270 286 296 301 302 307
201 206 206 200 193 191 196 202 193 193 199 204 214 228 252 282 298 302 302 305 308 308
199 196 192 187 184 185 190 194 194 197 202 210 231 262 285 293 296 300 305 307 312 315
192 188 188 186 186 189 192 195 197 203 214 235 263 283 295 299 303 310 312 315 317 319
193 192 191 190 191 192 194 200 205 216 237 265 284 293 299 307 315 316 316 315 315 316
197 196 195 194 195 196 201 209 218 234 260 282 294 304 311 310 309 310 311 315 321 323
199 199 199 199 197 202 208 214 228 252 289 304 310 308 299 298 301 307 316 322 325 328
202 201 202 202 204 208 213 221 245 277 301 297 284 285 290 294 303 314 317 326 331 336
204 204 202 205 206 208 217 234 273 290 281 278 282 286 289 296 304 309 318 330 333 333
Wind_Speed_850mb
60 53 48 50 44 38 35 34 35 34 33 29 29 26 27 28 30 31 32 35 36 40
50 47 48 49 39 41 36 31 32 33 32 31 30 26 27 28 32 27 31 35 37 39
35 40 45 45 42 37 37 37 31 31 30 17 23 27 26 26 25 35 35 32 32 32
30 34 40 45 39 29 29 28 28 30 31 31 30 27 29 30 28 27 25 25 27 29
33 39 45 46 45 29 28 30 28 27 26 29 27 23 22 20 18 18 20 23 26 30
36 39 42 45 41 32 30 30 28 26 25 22 20 17 14 13 14 17 22 27 32 36
33 37 38 37 35 31 31 30 27 25 24 20 16 13 11 12 17 22 27 30 34 37
34 33 33 33 34 34 33 31 26 23 18 14 11 10 12 18 22 24 27 31 36 40
36 36 36 36 35 35 32 27 22 18 14 10 11 15 19 23 25 28 32 36 40 44
39 39 39 38 36 33 28 24 20 15 13 13 16 18 21 26 30 34 37 40 40 41
44 43 41 39 35 30 26 22 17 14 12 14 19 24 27 29 33 35 36 35 36 37
46 44 41 37 33 29 26 20 15 12 14 20 26 32 34 32 31 29 28 30 32 36
48 44 40 37 33 29 23 17 12 12 20 30 34 31 31 29 26 24 26 27 30 38
49 46 42 37 32 26 18 13 17 25 29 30 30 29 26 24 25 27 30 33 36 39
Wind_Direction_850mb
242 236 234 232 239 243 246 245 243 244 248 248 254 253 260 258 262 260 261 270 280 278
235 228 225 220 223 237 240 238 243 243 247 250 241 254 256 258 253 258 272 278 278 280
218 214 215 218 223 233 235 239 242 243 240 240 228 253 258 254 269 269 272 275 279 285
206 204 204 207 215 219 227 227 229 232 238 248 248 240 245 250 256 261 269 278 286 293
205 205 206 210 220 215 216 220 218 219 222 231 232 228 232 239 251 267 280 290 299 302
201 201 205 211 224 209 203 209 208 206 207 210 215 219 231 253 270 286 296 301 302 307
201 206 206 200 193 191 196 202 193 193 199 204 214 228 252 282 298 302 302 305 308 308
199 196 192 187 184 185 190 194 194 197 202 210 231 262 285 293 296 300 305 307 312 315
192 188 188 186 186 189 192 195 197 203 214 235 263 283 295 299 303 310 312 315 317 319
193 192 191 190 191 192 194 200 205 216 237 265 284 293 299 307 315 316 316 315 315 316
197 196 195 194 195 196 201 209 218 234 260 282 294 304 311 310 309 310 311 315 321 323
199 199 199 199 197 202 208 214 228 252 289 304 310 308 299 298 301 307 316 322 325 328
202 201 202 202 204 208 213 221 245 277 301 297 284 285 290 294 303 314 317 326 331 336
204 204 202 205 206 208 217 234 273 290 281 278 282 286 289 296 304 309 318 330 333 333